Theta_e
328 321 318 315 305 305 298 300 304 300 303 308 305 301 292 293 292 294 303 303 303 303 309 314 332 343 343 342 346 346 346 348 347 346 345 344 343 342 342 343 345 348 345 346 345 344 343 343 343
326 319 319 311 301 298 293 298 297 299 303 308 302 302 294 289 293 297 298 300 301 302 308 312 332 340 343 342 342 345 346 346 345 345 344 342 341 341 339 340 343 345 345 344 344 344 344 342 339
321 320 312 303 297 289 291 290 293 300 302 305 300 295 291 286 292 295 299 299 300 302 306 311 329 335 339 342 342 343 344 344 343 342 342 341 340 339 338 338 339 339 342 344 344 342 341 339 338
320 315 308 301 291 288 288 289 292 295 299 300 299 289 292 292 292 294 297 298 298 302 305 310 325 330 332 335 336 338 340 341 342 341 340 339 339 338 338 338 337 338 338 339 340 340 339 337 336
315 310 296 293 291 289 287 289 290 288 293 293 299 289 287 291 293 295 295 296 294 300 303 305 318 323 325 328 329 330 331 332 334 335 339 339 338 338 337 336 336 336 337 337 337 338 336 334 333
309 307 293 288 289 290 287 285 287 285 286 285 293 288 284 290 291 293 295 294 294 297 300 303 307 315 319 321 322 323 325 326 327 327 329 332 333 337 337 336 336 336 336 335 336 336 335 333 332
304 300 292 291 288 287 284 287 282 282 284 281 291 285 285 287 291 293 293 294 294 294 297 299 301 305 310 313 315 317 318 318 319 321 321 323 324 327 329 330 334 337 338 337 337 336 335 333 333
304 300 291 289 288 280 284 285 285 282 280 286 286 280 280 286 290 292 293 292 293 292 293 296 298 299 301 304 308 309 310 311 312 312 313 315 317 319 320 320 325 329 331 336 336 336 334 333 333
309 292 287 286 285 281 286 284 287 288 283 283 284 283 285 288 289 289 289 289 291 291 292 293 295 297 298 299 301 303 304 305 305 305 307 308 309 313 313 314 317 321 321 326 329 335 335 333 330
295 286 282 287 285 281 283 285 285 283 282 282 283 286 287 287 287 285 286 286 287 289 291 292 293 295 296 297 299 298 299 298 299 299 300 301 303 305 307 308 311 313 314 318 321 324 332 329 328
291 283 287 286 287 286 283 281 284 282 278 281 281 284 286 286 287 285 285 286 287 288 290 291 292 294 295 295 295 297 297 298 298 298 299 299 299 299 300 300 302 305 307 309 312 315 317 321 328
286 289 289 288 289 286 282 283 280 281 280 284 285 286 286 286 286 286 286 286 287 288 289 291 292 293 294 295 294 295 294 295 295 296 298 298 297 298 298 298 298 300 302 303 304 307 309 312 317
285 286 287 287 285 284 284 281 281 280 284 285 286 285 285 285 285 286 288 288 288 287 289 290 292 292 293 293 294 294 294 294 295 295 296 297 296 296 298 298 298 299 301 300 300 301 302 305 310
288 288 287 289 287 287 282 282 283 283 285 285 285 284 285 285 285 286 286 287 287 288 289 291 291 292 293 293 293 293 293 294 294 294 295 296 295 295 295 295 295 297 300 299 299 300 300 301 304
291 287 289 288 288 288 288 280 278 284 286 284 284 285 285 285 286 286 287 287 287 288 289 290 291 292 292 292 293 293 293 293 293 293 293 295 295 294 293 294 293 294 297 297 296 296 298 298 303
292 292 284 290 291 290 289 275 282 285 284 283 284 284 284 285 286 287 287 287 287 288 289 290 291 291 291 291 291 292 292 292 292 292 292 293 293 293 293 292 292 293 294 293 293 294 294 294 297
290 282 282 284 290 289 287 277 281 285 284 282 283 284 284 285 286 287 288 287 287 288 288 289 290 290 290 291 291 292 291 291 291 291 291 292 292 293 291 291 291 292 292 291 291 291 292 292 293
281 280 281 281 285 284 280 279 281 282 282 282 282 283 283 283 284 287 288 288 288 287 288 288 289 289 290 291 291 291 291 290 290 290 291 292 292 292 291 290 291 291 290 290 290 289 290 291 291
285 281 279 282 285 281 279 278 279 281 281 280 281 282 283 283 285 286 287 288 288 287 287 287 288 288 289 288 287 288 287 289 289 290 291 291 291 291 290 290 290 290 289 289 289 289 288 288 290
284 279 277 281 285 281 279 276 279 280 280 281 281 281 281 283 284 285 286 286 287 286 286 287 287 287 288 288 287 287 287 287 289 290 291 292 292 292 290 289 289 289 288 288 288 287 286 287 289
280 279 278 278 282 282 280 276 278 281 282 282 282 283 283 282 282 283 284 284 286 286 286 287 287 287 288 288 289 289 289 288 287 288 289 290 291 291 291 289 288 288 288 287 287 286 286 284 287
276 282 282 281 279 273 281 273 276 279 279 281 282 281 282 282 284 283 283 283 284 286 287 287 288 288 288 289 288 287 286 284 286 287 288 288 290 289 290 289 288 287 287 287 286 287 286 286 284
278 283 282 281 278 276 275 271 275 281 278 280 281 282 282 283 282 282 283 284 284 286 286 286 287 287 288 288 287 286 285 286 286 286 287 287 288 289 289 288 287 286 287 286 286 286 285 286 285
284 281 280 279 278 268 271 271 273 277 280 282 283 283 284 283 283 283 284 284 284 286 287 287 287 287 287 287 287 286 285 285 285 285 285 286 286 287 287 288 287 287 286 286 285 285 285 285 285
280 277 270 271 269 269 274 269 276 282 282 284 284 283 283 284 283 283 282 283 283 283 285 287 287 286 287 287 287 286 286 285 285 285 284 284 284 285 285 286 286 285 286 286 286 285 285 285 284
275 274 270 264 268 269 273 265 275 282 285 285 285 285 285 284 284 283 282 282 282 283 284 285 286 286 286 286 286 286 286 285 285 285 285 284 284 285 286 285 286 286 286 285 284 284 284 285 284
274 273 273 264 257 264 272 274 276 279 280 283 282 284 283 283 283 283 283 283 283 283 284 284 285 286 286 286 286 286 285 285 285 285 285 285 285 286 286 285 285 285 284 284 283 283 283 283 283
274 275 271 269 263 262 271 271 272 275 277 280 281 281 283 283 283 284 283 283 283 284 284 284 285 285 286 286 286 286 285 286 285 285 285 285 285 285 285 285 284 284 283 283 282 282 282 282 282
272 272 272 271 269 266 265 271 277 278 277 279 280 282 282 283 283 283 283 284 284 284 284 284 284 285 285 286 286 286 286 286 286 285 285 285 285 285 284 284 283 282 282 282 281 281 281 281 281
273 273 274 269 267 268 268 268 277 279 279 280 281 283 283 283 284 284 284 284 283 283 283 284 284 285 286 286 286 286 286 285 285 284 285 285 284 285 284 283 282 281 281 281 280 280 280 279 279
Wind_Speed
16 11 4 3 2 4 5 8 15 14 7 11 15 15 17 16 7 5 15 21 23 21 20 22 30 18 9 4 10 11 11 12 13 14 13 13 14 14 14 15 14 13 7 9 11 13 13 12 12
7 5 4 4 3 7 5 16 16 11 9 9 12 9 17 9 11 9 10 23 21 19 17 19 26 23 22 9 8 11 12 12 13 13 13 14 14 14 15 15 14 16 15 10 10 12 13 12 11
4 11 5 3 5 7 6 13 12 9 13 12 8 13 7 10 15 9 15 19 19 16 17 17 25 24 26 26 17 14 14 14 15 15 14 14 14 14 14 14 15 14 15 16 14 14 12 12 11
2 5 4 2 10 12 8 13 16 11 10 19 12 13 9 16 10 12 17 17 15 14 14 18 24 26 28 29 26 28 25 21 20 17 15 15 14 14 14 14 14 14 13 13 13 12 14 12 10
5 3 5 6 14 11 15 14 18 17 6 16 5 7 7 10 14 14 15 16 16 13 13 15 25 27 29 30 29 29 27 26 25 23 23 18 14 13 13 14 14 14 14 13 12 12 13 9 9
4 2 4 7 7 8 13 18 12 16 14 20 11 9 8 10 14 15 13 16 15 14 14 14 19 25 30 30 30 29 28 28 27 26 25 23 24 18 12 12 12 12 11 11 11 12 11 9 7
4 3 4 8 9 5 6 7 17 15 14 20 9 7 5 14 14 9 13 15 13 16 16 14 14 19 27 31 30 30 29 28 28 28 26 25 25 25 26 24 21 17 12 10 9 7 7 7 8
4 3 4 7 3 6 8 5 17 17 21 6 9 11 6 11 13 7 9 13 16 17 17 18 17 17 17 16 29 28 30 29 29 28 27 25 23 24 23 24 23 24 24 17 10 8 7 7 7
2 5 5 4 5 5 2 3 11 12 18 22 15 16 11 11 9 13 11 14 16 18 18 17 18 17 17 14 17 22 26 29 29 25 28 19 13 15 17 22 25 24 26 23 23 15 8 7 9
8 6 8 8 13 14 15 10 7 10 17 17 20 19 15 13 13 15 15 17 20 19 19 14 16 16 14 13 13 15 14 13 15 16 16 13 14 14 16 18 25 25 26 24 24 22 15 8 5
8 7 8 12 16 15 17 23 7 5 11 12 14 15 18 17 15 16 16 16 15 15 12 17 14 14 12 13 10 8 8 8 9 15 14 13 11 11 10 9 10 11 18 11 14 13 9 13 10
11 13 6 5 6 10 14 8 18 13 5 8 8 10 11 15 16 16 16 15 16 14 16 14 14 13 13 9 9 10 9 9 9 11 14 10 8 9 10 9 10 10 10 13 11 9 13 14 14
19 15 17 18 21 17 20 19 12 13 9 6 7 10 10 11 13 16 13 15 12 16 14 13 13 11 12 12 10 9 10 9 10 11 13 11 9 9 8 9 8 8 9 9 10 10 11 12 13
9 15 10 12 12 11 17 11 5 6 1 5 5 7 8 7 10 8 13 10 14 12 14 12 14 12 11 11 13 8 9 9 9 10 12 15 10 10 9 9 11 10 9 10 10 10 10 10 11
20 17 11 7 8 7 11 15 8 6 4 1 1 3 2 1 2 4 5 7 7 8 13 12 12 12 10 11 10 9 8 9 9 10 13 14 13 12 10 9 10 10 9 12 11 11 11 10 10
8 6 5 6 10 5 8 4 9 10 8 5 5 7 6 6 8 7 7 8 9 10 11 10 10 11 9 10 7 8 7 7 8 9 9 13 13 14 10 9 10 10 9 9 10 10 11 10 10
5 5 8 7 3 2 4 7 6 11 7 7 5 5 4 5 5 7 5 8 9 10 10 9 11 11 11 9 6 6 8 7 8 8 8 12 12 12 10 9 9 11 9 9 10 10 10 10 11
7 6 9 8 9 15 15 13 9 7 6 6 5 5 5 6 7 6 6 6 7 6 8 8 9 12 10 8 6 5 7 6 6 7 8 12 10 13 10 9 10 10 9 9 10 12 11 9 11
14 13 10 7 3 9 10 10 8 7 6 6 5 4 5 6 5 4 5 6 6 6 6 7 8 9 7 6 5 6 4 5 4 6 7 8 8 10 10 9 10 10 9 9 11 10 14 10 12
12 11 6 5 4 7 7 6 5 6 6 7 6 4 4 4 4 4 5 5 5 5 5 6 7 7 5 4 3 3 3 4 3 4 6 6 7 7 8 8 8 9 8 9 11 11 10 7 10
10 7 4 6 6 6 6 5 8 7 5 6 6 5 3 3 3 4 4 5 4 5 4 5 4 5 5 6 3 3 3 3 3 3 4 4 6 6 6 8 7 8 7 7 8 9 11 9 9
5 8 6 5 3 2 1 3 7 9 8 7 8 8 7 6 4 3 4 3 4 2 1 3 4 5 5 5 4 5 3 3 3 3 3 4 6 6 5 6 6 6 5 7 7 9 8 8 10
3 5 4 3 4 1 2 2 1 9 8 10 8 8 9 8 5 4 4 3 2 3 1 2 0 1 2 3 3 3 3 2 2 2 5 4 5 5 5 5 5 5 4 5 6 8 8 5 7
3 3 3 2 3 3 5 2 4 7 8 7 10 9 9 9 8 5 5 3 2 2 3 3 2 2 1 1 2 2 2 3 3 3 3 3 3 3 4 5 5 5 5 5 5 6 8 8 8
4 2 1 4 3 2 4 2 9 7 3 5 11 11 10 9 9 7 5 2 1 1 2 4 5 4 4 4 4 2 4 3 4 4 3 4 3 3 5 5 5 4 5 6 6 8 9 9 8
4 2 5 2 2 3 4 5 5 5 6 4 4 10 10 9 8 6 5 4 3 4 4 4 4 5 5 5 5 4 4 3 3 3 3 3 3 4 4 4 5 6 6 6 6 6 7 9 8
1 1 2 7 2 4 4 6 2 2 3 4 5 4 8 9 8 8 6 4 4 4 5 4 5 5 6 6 5 6 5 5 5 6 4 3 5 4 5 6 6 6 6 6 6 6 8 8 9
2 3 2 3 2 4 4 4 7 7 10 9 9 9 8 8 8 8 7 6 5 6 6 6 6 7 7 7 6 6 7 6 6 5 5 6 5 4 6 6 6 6 6 7 7 8 9 10 9
2 2 2 2 3 5 2 7 5 9 11 11 10 9 9 9 8 8 8 8 7 6 6 7 7 7 7 7 7 7 7 6 6 5 6 6 4 5 6 6 6 6 7 7 8 9 11 11 13
3 3 4 5 5 1 2 10 2 3 4 8 8 8 8 8 9 8 8 6 6 6 7 8 8 8 8 7 7 7 6 6 6 6 7 5 5 5 6 6 6 7 7 7 8 11 12 13 14
Wind_Direction
320 310 316 272 245 227 95 56 51 31 36 32 31 60 90 51 32 75 341 3 342 334 327 326 338 17 3 61 72 73 75 67 60 60 53 47 42 38 36 36 31 36 68 74 78 84 81 70 55
300 358 338 307 259 219 96 29 49 36 356 294 56 59 40 73 37 335 347 343 336 330 333 332 355 29 38 17 68 72 68 62 58 54 47 41 37 36 33 34 37 37 43 62 78 83 77 65 48
137 41 69 2 19 18 80 25 351 354 14 1 108 50 45 356 349 3 340 331 334 339 340 340 10 32 44 43 45 50 57 55 50 43 43 41 37 33 32 36 36 37 46 45 44 56 63 52 37
13 63 43 145 94 44 44 22 343 343 10 16 95 72 92 41 352 342 340 340 339 354 354 351 18 33 45 49 47 46 45 43 42 39 43 42 37 34 29 31 32 33 36 37 37 37 46 33 26
31 78 82 75 79 90 59 21 22 37 62 22 31 76 69 16 4 347 348 342 359 7 15 4 19 36 44 47 46 46 46 44 39 32 28 30 33 36 32 28 26 24 24 23 22 28 32 16 9
51 68 97 137 117 83 64 33 32 29 45 8 76 89 63 7 6 3 351 354 11 15 18 20 19 35 43 44 44 45 44 41 39 35 31 29 26 17 19 29 28 24 25 21 17 7 7 1 359
73 48 65 113 131 75 37 355 22 30 36 22 31 76 83 14 9 7 5 12 18 21 28 26 16 35 40 41 41 43 43 41 38 35 30 27 28 24 34 23 15 7 12 13 5 358 349 343 340
77 84 74 33 116 72 23 52 50 41 33 67 30 37 33 10 11 359 40 19 16 27 24 24 27 22 41 37 36 38 39 40 38 33 29 27 26 24 24 24 16 20 6 344 339 330 323 317 306
269 65 46 55 58 119 102 97 47 49 53 52 56 66 41 21 26 21 29 32 33 23 25 21 28 26 28 36 36 36 33 36 35 29 26 24 18 14 21 19 19 16 8 7 0 314 289 288 284
43 66 42 57 77 73 58 58 68 51 38 35 24 25 19 23 24 34 22 30 36 27 22 19 24 30 31 31 28 37 33 32 35 32 28 25 21 16 16 15 13 14 7 4 358 356 330 303 276
35 91 121 77 91 88 84 58 42 50 37 23 15 13 14 14 17 27 31 32 37 33 30 21 24 27 31 32 35 30 31 30 27 28 32 31 23 12 19 16 10 9 2 3 356 358 356 340 341
104 60 77 88 85 82 68 79 66 58 69 19 17 8 22 21 18 26 16 22 31 27 32 26 25 33 28 36 36 37 33 31 33 26 28 24 29 12 19 19 9 13 2 359 356 357 345 345 341
69 84 81 87 86 82 92 74 80 53 41 26 17 28 20 23 20 18 16 18 16 32 27 26 30 40 34 38 36 32 26 30 33 29 27 29 27 16 15 14 11 6 1 356 352 0 350 346 339
111 96 98 88 88 97 82 58 57 41 27 47 11 9 13 23 24 21 13 14 22 24 33 18 30 31 39 40 45 43 38 29 30 34 27 25 24 18 17 15 15 8 1 357 353 355 350 344 336
138 111 131 138 144 154 112 52 67 191 200 186 3 1 324 43 171 44 58 38 51 25 39 17 33 30 35 43 40 41 32 34 28 30 26 26 22 18 17 17 16 2 358 1 356 357 353 345 335
183 139 84 76 175 195 177 91 187 187 185 200 198 199 139 77 46 50 52 46 41 45 46 26 33 34 32 42 44 35 40 37 35 30 21 25 20 17 16 15 13 359 0 4 359 355 352 344 341
169 100 112 71 63 105 105 148 138 177 158 113 98 87 87 113 110 89 57 56 47 38 42 36 34 37 31 28 27 43 36 46 37 30 23 21 20 15 19 15 7 2 359 3 359 355 353 341 343
141 98 50 76 69 76 97 125 148 152 125 128 137 141 113 71 51 59 77 76 61 51 48 38 38 26 29 30 22 19 41 29 33 28 26 17 15 12 18 9 8 7 360 1 358 353 351 340 342
80 90 97 79 10 81 108 132 147 152 148 150 129 133 107 97 95 80 56 56 70 46 39 34 45 36 25 24 18 20 36 25 30 25 17 20 13 12 16 6 2 3 0 354 355 350 349 348 347
88 91 86 58 34 94 127 127 146 182 169 161 160 161 118 81 61 60 56 59 82 71 49 40 38 40 31 27 9 21 17 29 32 36 15 18 13 11 16 6 358 358 353 356 356 351 348 338 349
30 41 44 120 115 115 155 166 186 203 176 183 188 159 168 114 69 69 65 54 49 57 35 59 44 52 47 28 16 7 17 25 8 18 6 4 7 7 14 7 356 355 351 350 347 349 351 337 339
77 322 96 144 268 86 34 305 212 187 209 208 200 181 189 161 121 108 87 68 70 53 52 36 27 45 40 35 24 27 22 11 353 10 343 351 350 356 6 6 348 349 338 346 342 344 338 337 330
127 286 21 347 65 351 155 56 76 161 220 215 203 193 183 157 152 126 98 100 147 130 172 267 278 22 72 27 48 33 21 346 313 347 345 346 332 347 347 0 340 338 335 331 331 331 332 325 319
171 217 220 279 129 34 226 121 224 188 213 201 182 185 182 166 183 161 148 152 137 162 193 213 260 266 225 337 334 30 351 327 330 317 313 309 306 310 326 349 335 324 319 321 321 315 314 314 309
253 266 333 356 3 214 65 18 243 179 130 182 170 178 184 172 177 193 146 147 198 216 244 228 224 257 250 235 257 260 271 268 284 298 301 319 309 319 321 334 326 315 313 318 318 317 313 312 306
21 345 141 187 349 284 31 250 250 79 104 88 15 166 167 176 182 176 176 182 224 253 264 273 261 243 255 255 248 246 265 256 264 268 287 289 284 294 302 318 307 306 307 309 307 305 302 302 303
17 356 11 100 42 48 209 245 13 131 228 179 200 218 175 175 186 193 182 194 230 243 249 256 274 274 263 267 266 257 256 262 266 278 281 282 292 299 318 308 303 301 301 299 301 299 297 295 294
19 149 55 345 54 296 286 272 238 215 214 202 205 205 197 190 195 195 189 204 215 223 229 232 238 245 244 252 252 254 254 254 265 272 275 275 280 300 302 301 299 302 302 304 308 310 306 304 299
156 179 54 98 115 179 283 266 216 206 192 193 203 200 199 199 201 202 201 207 209 216 225 234 240 247 252 247 251 247 251 253 262 263 266 264 277 290 291 291 294 297 300 302 305 300 297 294 294
325 300 175 128 250 215 128 271 157 123 147 186 203 196 199 196 201 199 200 206 218 232 233 232 236 233 234 236 246 252 252 253 256 257 259 265 276 287 289 294 294 291 293 297 296 295 295 292 293